Location: Barrio de Canyet
(41.4665°N, 2.2381°E)
Time: 02:15:42
(UTC+00:00)

Cosmos 1140 Rocket - Pass Details

Date: 09 April 2020
Orbit: 745 x 767 km, 74.1° (Epoch: 31 May)

Event Time Altitude Azimuth Distance (km) Brightness Sun altitude
Rises 20:03:02 0° 212° (SSW) 3,202 6.8 -18.0°
Reaches altitude 10° 20:05:28 10° 217° (SW) 2,278 6.0 -18.4°
Maximum altitude 20:10:29 51° 293° (WNW) 942 4.3 -19.2°
Drops below altitude 10° 20:15:31 10° 10° (N) 2,279 6.2 -20.0°
Sets 20:17:57 0° 15° (NNE) 3,204 6.9 -20.4°
